Location: Marcé
(47.5801°N, 0.3280°W)
Time: 21:47:36
(UTC+01:00)

Tiros 1 - Pass Details

Date: 05 December 2021
Orbit: 630 x 663 km, 48.4° (Epoch: 20 January)

Event Time Altitude Azimuth Distance (km) Brightness Sun altitude
Rises 21:53:02 0° 273° (W) 2,933 11.2 -46.4°
Enters shadow 21:53:36 - 273° (W) 2,710 11.0 -46.5°
Reaches altitude 10° 21:55:21 10° 274° (W) 2,030 - -46.8°
Maximum altitude 22:00:02 80° 1° (N) 658 - -47.5°
Drops below altitude 10° 22:04:47 10° 90° (E) 2,051 - -48.3°
Sets 22:07:08 0° 91° (E) 2,968 - -48.7°
